FW9229 Weather Reports


Display with metric or nautical units.
time (UTC)temp
F
wind
direction
speed
MPH
gust
MPH
rain 1hr
in
rain 24hr
in
rain mn
in
humidity
%
barometer
mb
20260906112519 78 0 0.0 0.0 0.00 0.00 0.00 86 1013.3
20260906112026 78 0 0.0 0.0 0.00 0.00 0.00 86 1013.1
20260906111541 78 0 0.0 0.0 0.00 0.00 0.00 86 1013.2
20260906111020 78 0 0.0 0.0 0.00 0.00 0.00 86 1013.2
20260906110522 78 0 0.0 0.0 0.00 0.00 0.00 85 1013.3
20260906110039 79 0 0.0 0.0 0.00 0.00 0.00 86 1013.1
20260906105523 79 0 0.0 0.0 0.00 0.00 0.00 85 1013.1
20260906105017 79 0 0.0 0.0 0.00 0.00 0.00 86 1013.0
20260906104537 79 0 0.0 0.0 0.00 0.00 0.00 86 1013.2
20260906104018 79 0 0.0 0.0 0.00 0.00 0.00 86 1013.1
20260906103521 79 0 0.0 0.0 0.00 0.00 0.00 85 1013.1
20260906103038 79 0 0.0 0.0 0.00 0.00 0.00 85 1013.0
20260906102517 79 0 0.0 0.0 0.00 0.00 0.00 85 1012.9
20260906102019 79 0 0.0 0.0 0.00 0.00 0.00 85 1012.9
20260906101541 79 0 0.0 0.0 0.00 0.00 0.00 85 1012.9
20260906101018 79 0 0.0 0.0 0.00 0.00 0.00 85 1012.9
20260906100518 79 0 0.0 0.0 0.00 0.00 0.00 85 1012.9
20260906100039 79 0 0.0 0.0 0.00 0.00 0.00 85 1012.9
20260906095517 79 0 0.0 0.0 0.00 0.00 0.00 84 1012.8
20260906095017 79 0 0.0 0.0 0.00 0.00 0.00 84 1012.8
20260906094539 79 0 0.0 0.0 0.00 0.00 0.00 84 1012.7
20260906094020 79 0 0.0 0.0 0.00 0.00 0.00 84 1012.6
20260906093518 80 0 0.0 0.0 0.00 0.00 0.00 84 1012.4
20260906093038 80 0 0.0 0.0 0.00 0.00 0.00 83 1012.5
20260906092520 80 0 0.0 0.0 0.00 0.00 0.00 83 1012.3
20260906092020 80 0 0.0 0.0 0.00 0.00 0.00 83 1012.4
20260906091540 80 0 0.0 0.0 0.00 0.00 0.00 83 1012.2
20260906091019 80 0 0.0 0.0 0.00 0.00 0.00 83 1012.2
20260906090519 80 0 0.0 1.0 0.00 0.00 0.00 83 1012.1
20260906090037 80 0 0.0 1.0 0.00 0.00 0.00 82 1012.2
20260906085518 81 0 0.0 2.0 0.00 0.00 0.00 82 1012.2
20260906085023 81 0 0.0 3.0 0.00 0.00 0.00 82 1012.3
20260906084541 81 0 0.0 3.0 0.00 0.00 0.00 82 1012.3
20260906084020 81 0 0.0 5.0 0.00 0.00 0.00 82 1012.3
20260906083521 81 0 0.0 5.0 0.00 0.00 0.00 81 1012.3
20260906083040 81 212 0.0 4.0 0.00 0.00 0.00 81 1012.3
20260906082517 81 0 0.0 3.0 0.00 0.00 0.00 81 1012.3
20260906082020 81 215 0.0 3.0 0.00 0.00 0.00 81 1012.3
20260906081547 81 220 0.0 2.0 0.00 0.00 0.00 81 1012.2
20260906081020 81 0 0.0 1.0 0.00 0.00 0.00 81 1012.4
20260906080521 81 0 0.0 0.0 0.00 0.00 0.00 80 1012.4
20260906080036 82 0 0.0 3.0 0.00 0.00 0.00 80 1012.3
20260906075518 82 0 0.0 3.0 0.00 0.00 0.00 80 1012.3
20260906075019 82 0 0.0 3.0 0.00 0.00 0.00 79 1012.2
20260906074539 82 0 0.0 1.0 0.00 0.00 0.00 79 1012.2
20260906074021 82 0 0.0 5.0 0.00 0.00 0.00 79 1012.4
20260906073518 82 0 0.0 5.0 0.00 0.00 0.00 79 1012.4
20260906073037 82 0 0.0 4.0 0.00 0.00 0.00 79 1012.4
20260906072518 82 0 0.0 1.0 0.00 0.00 0.00 78 1012.4
20260906072018 82 0 0.0 0.0 0.00 0.00 0.00 79 1012.4
20260906071541 82 0 0.0 0.0 0.00 0.00 0.00 79 1012.4
20260906071020 82 0 0.0 0.0 0.00 0.00 0.00 78 1012.4
20260906070519 82 0 0.0 0.0 0.00 0.00 0.00 78 1012.4
20260906070038 82 0 0.0 0.0 0.00 0.00 0.00 77 1012.4
20260906065518 82 0 0.0 2.0 0.00 0.00 0.00 77 1012.5
20260906065016 83 0 0.0 2.0 0.00 0.00 0.00 77 1012.6
20260906064541 83 0 0.0 5.0 0.00 0.00 0.00 76 1012.7
20260906064021 83 0 0.0 5.0 0.00 0.00 0.00 76 1012.7
20260906063520 83 168 0.0 4.0 0.00 0.00 0.00 75 1012.6
20260906063038 83 0 0.0 3.0 0.00 0.00 0.00 75 1012.5
20260906062517 83 0 0.0 5.0 0.00 0.00 0.00 74 1012.8
20260906062018 83 0 1.0 6.0 0.00 0.00 0.00 74 1012.8
20260906061539 83 208 1.0 7.0 0.00 0.00 0.00 74 1012.8
20260906061019 84 0 0.0 7.0 0.00 0.00 0.00 73 1012.8
20260906060520 84 0 0.0 6.0 0.00 0.00 0.00 73 1013.0
20260906060034 84 198 2.0 6.0 0.00 0.00 0.00 72 1013.0
20260906055517 84 0 0.0 7.0 0.00 0.00 0.00 72 1012.9
20260906055019 84 179 1.0 7.0 0.00 0.00 0.00 72 1013.0
20260906054538 84 0 1.0 4.0 0.00 0.00 0.00 71 1012.9
20260906054018 84 0 1.0 5.0 0.00 0.00 0.00 71 1012.9
20260906053520 84 0 0.0 5.0 0.00 0.00 0.00 70 1012.9
20260906053039 84 217 1.0 5.0 0.00 0.00 0.00 70 1012.8
20260906052520 84 160 2.0 5.0 0.00 0.00 0.00 70 1012.8
20260906052021 84 0 0.0 4.0 0.00 0.00 0.00 69 1012.9
20260906051540 84 0 0.0 4.0 0.00 0.00 0.00 69 1012.9
20260906051020 85 184 0.0 4.0 0.00 0.00 0.00 68 1012.8
20260906050517 85 0 0.0 4.0 0.00 0.00 0.00 68 1012.7
20260906050101 85 0 1.0 7.0 0.00 0.00 0.00 68 1012.8
20260906045519 85 0 0.0 7.0 0.00 0.00 0.00 67 1012.8
20260906045016 85 0 2.0 6.0 0.00 0.00 0.00 67 1012.8
20260906044541 85 0 1.0 6.0 0.00 0.00 0.00 67 1012.8
20260906044024 85 172 2.0 6.0 0.00 0.00 0.00 67 1012.8
20260906043521 86 248 1.0 7.0 0.00 0.00 0.00 67 1012.9
20260906043038 86 213 2.0 7.0 0.00 0.00 0.00 67 1012.9
20260906042520 86 0 1.0 7.0 0.00 0.00 0.00 67 1012.9
20260906042020 86 202 0.0 7.0 0.00 0.00 0.00 67 1013.0
20260906041540 86 183 1.0 5.0 0.00 0.00 0.00 68 1013.0
20260906041019 86 150 0.0 6.0 0.00 0.00 0.00 67 1013.0
20260906040519 86 0 0.0 6.0 0.00 0.00 0.00 68 1013.0
20260906040044 86 199 0.0 8.0 0.00 0.00 0.00 67 1012.9
20260906035520 86 220 1.0 8.0 0.00 0.00 0.00 67 1012.9
20260906035018 86 204 0.0 6.0 0.00 0.00 0.00 67 1013.0
20260906034542 86 200 0.0 7.0 0.00 0.00 0.00 67 1012.8
20260906034019 86 222 2.0 9.0 0.00 0.00 0.00 67 1012.8
20260906033520 86 198 3.0 9.0 0.00 0.00 0.00 67 1012.8
20260906033040 86 183 0.0 6.0 0.00 0.00 0.00 67 1012.9
20260906032517 86 0 1.0 6.0 0.00 0.00 0.00 66 1012.9
20260906032020 87 0 1.0 8.0 0.00 0.00 0.00 66 1012.9
20260906031542 87 208 2.0 8.0 0.00 0.00 0.00 65 1013.0
20260906031019 87 219 2.0 8.0 0.00 0.00 0.00 65 1012.9
20260906030523 87 204 3.0 9.0 0.00 0.00 0.00 65 1013.0
20260906030040 87 219 4.0 12.0 0.00 0.00 0.00 64 1013.0
20260906025520 87 218 3.0 12.0 0.00 0.00 0.00 64 1013.0
20260906025018 87 215 3.0 9.0 0.00 0.00 0.00 63 1012.9
20260906024540 87 0 2.0 8.0 0.00 0.00 0.00 63 1012.9
20260906024020 88 0 2.0 7.0 0.00 0.00 0.00 63 1012.8
20260906023520 88 214 2.0 9.0 0.00 0.00 0.00 63 1012.8
20260906023040 88 122 2.0 9.0 0.00 0.00 0.00 63 1012.7
20260906022520 88 198 2.0 9.0 0.00 0.00 0.00 62 1012.7
20260906022020 88 186 2.0 9.0 0.00 0.00 0.00 62 1012.6
20260906021545 88 159 2.0 9.0 0.00 0.00 0.00 62 1012.4
20260906021017 88 206 3.0 9.0 0.00 0.00 0.00 61 1012.3
20260906020521 88 173 2.0 8.0 0.00 0.00 0.00 61 1012.2
20260906020037 88 214 2.0 6.0 0.00 0.00 0.00 60 1012.3
20260906015520 88 225 0.0 9.0 0.00 0.00 0.00 61 1012.3
20260906015018 88 159 3.0 9.0 0.00 0.00 0.00 60 1012.1
20260906014539 88 197 1.0 9.0 0.00 0.00 0.00 60 1012.0
20260906014018 88 192 2.0 9.0 0.00 0.00 0.00 60 1012.0
20260906013519 88 226 3.0 10.0 0.00 0.00 0.00 59 1011.9
20260906013036 89 212 5.0 10.0 0.00 0.00 0.00 60 1011.7
20260906012518 89 0 2.0 11.0 0.00 0.00 0.00 60 1011.7
20260906012020 89 138 1.0 11.0 0.00 0.00 0.00 59 1011.6
20260906011539 89 213 2.0 12.0 0.00 0.00 0.00 59 1011.6
20260906011017 90 201 4.0 13.0 0.00 0.00 0.00 58 1011.6
20260906010520 91 166 5.0 13.0 0.00 0.00 0.00 54 1011.6
20260906010036 92 224 3.0 8.0 0.00 0.00 0.00 52 1011.6
20260906005524 93 188 3.0 8.0 0.00 0.00 0.00 51 1011.6
20260906005020 93 129 2.0 11.0 0.00 0.00 0.00 50 1011.4
20260906004539 94 196 2.0 11.0 0.00 0.00 0.00 50 1011.3
20260906004025 94 141 3.0 15.0 0.00 0.00 0.00 49 1011.2
20260906003522 95 173 2.0 15.0 0.00 0.00 0.00 48 1011.1
20260906003038 95 160 2.0 8.0 0.00 0.00 0.00 47 1011.2
20260906002523 96 129 2.0 5.0 0.00 0.00 0.00 45 1011.2
20260906002020 96 0 0.0 3.0 0.00 0.00 0.00 45 1011.1
20260906001538 96 193 0.0 5.0 0.00 0.00 0.00 44 1011.1
20260906001019 96 0 1.0 5.0 0.00 0.00 0.00 44 1011.1
20260906000520 96 205 1.0 6.0 0.00 0.00 0.00 44 1011.2
20260906000036 96 184 1.0 8.0 0.00 0.00 0.00 43 1011.1
20260905235519 96 0 1.0 8.0 0.00 0.00 0.00 43 1011.1
20260905235019 97 160 1.0 6.0 0.00 0.00 0.00 43 1011.0
20260905234540 97 0 0.0 8.0 0.00 0.00 0.00 43 1011.0
20260905234018 97 212 3.0 8.0 0.00 0.00 0.00 42 1011.0
20260905233518 97 0 0.0 4.0 0.00 0.00 0.00 42 1011.0
20260905233035 98 0 0.0 5.0 0.00 0.00 0.00 41 1011.0
20260905232521 98 189 1.0 5.0 0.00 0.00 0.00 40 1010.9
20260905232020 98 159 1.0 10.0 0.00 0.00 0.00 41 1011.0
20260905231538 98 170 2.0 10.0 0.00 0.00 0.00 41 1011.1
20260905231020 99 122 1.0 4.0 0.00 0.00 0.00 40 1011.1
20260905230519 99 149 0.0 5.0 0.00 0.00 0.00 40 1011.3
20260905230036 99 159 1.0 5.0 0.00 0.00 0.00 40 1011.0
20260905225520 98 0 0.0 5.0 0.00 0.00 0.00 40 1010.9
20260905225019 99 0 0.0 4.0 0.00 0.00 0.00 39 1011.0
20260905224540 99 100 1.0 4.0 0.00 0.00 0.00 39 1010.9
20260905224019 99 0 0.0 4.0 0.00 0.00 0.00 39 1010.7
20260905223519 99 100 1.0 5.0 0.00 0.00 0.00 39 1010.9
20260905223040 100 0 0.0 6.0 0.00 0.00 0.00 37 1010.9
20260905222520 99 208 1.0 6.0 0.00 0.00 0.00 39 1010.9
20260905222019 101 216 0.0 5.0 0.00 0.00 0.00 36 1010.9
20260905221538 102 0 1.0 5.0 0.00 0.00 0.00 36 1010.9
20260905221021 103 170 1.0 5.0 0.00 0.00 0.00 35 1010.9
20260905220522 104 0 0.0 3.0 0.00 0.00 0.00 36 1011.0
20260905220035 103 0 0.0 7.0 0.00 0.00 0.00 36 1011.0
20260905215519 103 135 1.0 7.0 0.00 0.00 0.00 37 1011.1
20260905215016 101 0 0.0 4.0 0.00 0.00 0.00 38 1011.1
20260905214538 101 0 0.0 7.0 0.00 0.00 0.00 37 1011.2
20260905214020 101 0 1.0 7.0 0.00 0.00 0.00 38 1011.2
20260905213518 103 206 1.0 8.0 0.00 0.00 0.00 37 1011.3
20260905213043 102 0 0.0 8.0 0.00 0.00 0.00 37 1011.3
20260905212519 100 214 1.0 8.0 0.00 0.00 0.00 39 1011.3
20260905212023 100 214 2.0 8.0 0.00 0.00 0.00 38 1011.4
20260905211534 100 0 0.0 4.0 0.00 0.00 0.00 39 1011.5
20260905211019 100 0 0.0 4.0 0.00 0.00 0.00 40 1011.6
20260905210519 98 0 0.0 5.0 0.00 0.00 0.00 40 1011.7
20260905210044 99 161 0.0 5.0 0.00 0.00 0.00 41 1011.9
20260905205517 98 0 0.0 3.0 0.00 0.00 0.00 41 1011.9
20260905205020 101 0 1.0 3.0 0.00 0.00 0.00 38 1012.0
20260905204537 101 0 0.0 5.0 0.00 0.00 0.00 40 1012.0
20260905204019 100 0 1.0 5.0 0.00 0.00 0.00 40 1012.0
20260905203519 100 105 0.0 6.0 0.00 0.00 0.00 41 1012.1
20260905203038 99 105 1.0 6.0 0.00 0.00 0.00 42 1012.1
20260905202520 99 0 0.0 4.0 0.00 0.00 0.00 42 1012.2
20260905202020 99 0 1.0 5.0 0.00 0.00 0.00 42 1012.3
20260905201540 99 0 2.0 5.0 0.00 0.00 0.00 42 1012.3
20260905201017 98 121 0.0 4.0 0.00 0.00 0.00 43 1012.3
20260905200517 98 0 1.0 4.0 0.00 0.00 0.00 44 1012.4
20260905200044 97 122 0.0 4.0 0.00 0.00 0.00 44 1012.5
20260905195517 97 0 0.0 5.0 0.00 0.00 0.00 43 1012.5
20260905195020 98 196 2.0 5.0 0.00 0.00 0.00 43 1012.6
20260905194539 99 0 0.0 6.0 0.00 0.00 0.00 42 1012.7
20260905194018 99 71 2.0 6.0 0.00 0.00 0.00 42 1012.7
20260905193519 99 129 1.0 5.0 0.00 0.00 0.00 42 1012.7
20260905193035 99 57 1.0 5.0 0.00 0.00 0.00 43 1012.8
20260905192520 98 47 0.0 6.0 0.00 0.00 0.00 43 1012.9
20260905192024 97 0 2.0 7.0 0.00 0.00 0.00 43 1012.8
20260905191539 97 228 1.0 7.0 0.00 0.00 0.00 43 1013.1
20260905191020 97 0 0.0 5.0 0.00 0.00 0.00 43 1013.3
20260905190520 98 0 0.0 5.0 0.00 0.00 0.00 43 1013.3
20260905190038 98 164 1.0 6.0 0.00 0.00 0.00 42 1013.5
20260905185518 98 156 1.0 6.0 0.00 0.00 0.00 43 1013.6
20260905185019 97 0 1.0 5.0 0.00 0.00 0.00 43 1013.6
20260905184558 97 218 1.0 5.0 0.00 0.00 0.00 44 1013.6
20260905184025 96 219 0.0 8.0 0.00 0.00 0.00 45 1013.6
20260905183524 96 219 3.0 9.0 0.00 0.00 0.00 44 1013.6
20260905183041 97 213 4.0 9.0 0.00 0.00 0.00 44 1013.8
20260905182520 97 0 0.0 4.0 0.00 0.00 0.00 44 1013.8
20260905182020 96 63 0.0 5.0 0.00 0.00 0.00 46 1013.8
20260905181538 97 0 1.0 8.0 0.00 0.00 0.00 45 1013.9
20260905181017 96 126 1.0 9.0 0.00 0.00 0.00 46 1014.0
20260905180518 96 218 4.0 9.0 0.00 0.00 0.00 45 1014.1
20260905180038 97 160 2.0 8.0 0.00 0.00 0.00 45 1014.3
20260905175518 96 191 1.0 8.0 0.00 0.00 0.00 48 1014.3
20260905175019 96 339 2.0 8.0 0.00 0.00 0.00 47 1014.3
20260905174545 96 0 1.0 6.0 0.00 0.00 0.00 47 1014.5
20260905174020 97 133 1.0 5.0 0.00 0.00 0.00 47 1014.5
20260905173518 95 183 1.0 5.0 0.00 0.00 0.00 48 1014.5
20260905173041 95 81 0.0 4.0 0.00 0.00 0.00 49 1014.6
20260905172521 95 0 1.0 5.0 0.00 0.00 0.00 50 1014.5
20260905172020 93 180 2.0 5.0 0.00 0.00 0.00 52 1014.6
20260905171540 93 204 1.0 4.0 0.00 0.00 0.00 53 1014.7
20260905171022 93 204 1.0 4.0 0.00 0.00 0.00 53 1014.7
20260905170519 92 0 0.0 4.0 0.00 0.00 0.00 54 1014.7
20260905170039 92 220 0.0 7.0 0.00 0.00 0.00 54 1014.9
20260905165518 92 218 0.0 7.0 0.00 0.00 0.00 53 1014.9
20260905165018 93 0 1.0 8.0 0.00 0.00 0.00 54 1014.8
20260905164537 93 217 3.0 8.0 0.00 0.00 0.00 54 1014.7
20260905164018 93 199 0.0 3.0 0.00 0.00 0.00 53 1014.7
20260905163518 92 0 0.0 5.0 0.00 0.00 0.00 55 1014.6
20260905163050 91 201 2.0 5.0 0.00 0.00 0.00 56 1014.6
20260905162520 92 223 1.0 6.0 0.00 0.00 0.00 54 1014.7
20260905162019 93 199 1.0 6.0 0.00 0.00 0.00 54 1014.8
20260905161540 92 0 0.0 3.0 0.00 0.00 0.00 55 1014.7
20260905161020 92 0 0.0 3.0 0.00 0.00 0.00 56 1014.6
20260905160520 91 317 1.0 3.0 0.00 0.00 0.00 59 1014.7
20260905160048 91 0 0.0 5.0 0.00 0.00 0.00 58 1014.8
20260905155517 91 316 0.0 5.0 0.00 0.00 0.00 59 1014.7
20260905155016 91 315 0.0 3.0 0.00 0.00 0.00 58 1014.8
20260905154547 91 315 0.0 3.0 0.00 0.00 0.00 59 1014.7
20260905154018 90 317 1.0 3.0 0.00 0.00 0.00 60 1014.7
20260905153518 90 0 0.0 4.0 0.00 0.00 0.00 61 1014.6
20260905153038 89 317 0.0 5.0 0.00 0.00 0.00 62 1014.6
20260905152518 89 188 1.0 5.0 0.00 0.00 0.00 64 1014.7
20260905152020 88 236 0.0 4.0 0.00 0.00 0.00 64 1014.8
20260905151538 88 0 0.0 4.0 0.00 0.00 0.00 65 1014.7
20260905151022 87 206 1.0 4.0 0.00 0.00 0.00 66 1014.6
20260905150519 87 338 0.0 2.0 0.00 0.00 0.00 66 1014.6
20260905150041 87 0 0.0 5.0 0.00 0.00 0.00 66 1014.6
20260905145519 87 0 0.0 5.0 0.00 0.00 0.00 67 1014.6
20260905145021 86 0 0.0 4.0 0.00 0.00 0.00 68 1014.5
20260905144547 86 0 0.0 4.0 0.00 0.00 0.00 69 1014.5
20260905144019 86 218 0.0 5.0 0.00 0.00 0.00 69 1014.4
20260905143521 85 0 1.0 5.0 0.00 0.00 0.00 70 1014.4
20260905143038 85 206 0.0 4.0 0.00 0.00 0.00 71 1014.5
20260905142519 85 203 0.0 3.0 0.00 0.00 0.00 71 1014.5
20260905142022 84 0 0.0 2.0 0.00 0.00 0.00 71 1014.4
20260905141602 84 204 0.0 4.0 0.00 0.00 0.00 72 1014.6
20260905141018 84 0 0.0 4.0 0.00 0.00 0.00 72 1014.5
20260905140518 84 0 0.0 4.0 0.00 0.00 0.00 72 1014.5
20260905140053 84 0 0.0 6.0 0.00 0.00 0.00 73 1014.6
20260905135519 84 0 0.0 6.0 0.00 0.00 0.00 73 1014.5
20260905135019 83 0 0.0 2.0 0.00 0.00 0.00 73 1014.5
20260905134536 83 0 0.0 2.0 0.00 0.00 0.00 74 1014.4
20260905134017 83 0 0.0 2.0 0.00 0.00 0.00 74 1014.4
20260905133519 83 0 0.0 2.0 0.00 0.00 0.00 74 1014.3
20260905133050 83 0 0.0 4.0 0.00 0.00 0.00 74 1014.3
20260905132520 82 0 0.0 4.0 0.00 0.00 0.00 75 1014.2
20260905132020 82 0 0.0 0.0 0.00 0.00 0.00 76 1014.2
20260905131553 82 0 0.0 0.0 0.00 0.00 0.00 76 1014.2
20260905131021 82 0 0.0 0.0 0.00 0.00 0.00 77 1014.2
20260905130519 82 0 0.0 0.0 0.00 0.00 0.00 76 1014.2
20260905130039 81 0 0.0 4.0 0.00 0.00 0.00 76 1014.2
20260905125517 81 0 0.0 4.0 0.00 0.00 0.00 77 1014.1
20260905125020 81 0 0.0 0.0 0.00 0.00 0.00 77 1013.9
20260905124539 81 0 0.0 0.0 0.00 0.00 0.00 77 1013.8
20260905124019 80 0 0.0 2.0 0.00 0.00 0.00 78 1013.7
20260905123516 80 0 0.0 2.0 0.00 0.00 0.00 78 1013.7
20260905123037 80 217 0.0 0.0 0.00 0.00 0.00 78 1013.7
20260905122520 80 0 0.0 3.0 0.00 0.00 0.00 79 1013.7
20260905122019 80 0 0.0 3.0 0.00 0.00 0.00 79 1013.6
20260905121538 80 0 0.0 3.0 0.00 0.00 0.00 80 1013.6
20260905121023 79 0 0.0 1.0 0.00 0.00 0.00 80 1013.6
20260905120524 79 0 0.0 0.0 0.00 0.00 0.00 80 1013.7
20260905120038 79 0 0.0 0.0 0.00 0.00 0.00 79 1013.6
20260905115518 79 0 0.0 0.0 0.00 0.00 0.00 79 1013.8
20260905115020 79 0 0.0 0.0 0.00 0.00 0.00 79 1013.7
20260905114610 79 0 0.0 0.0 0.00 0.00 0.00 79 1013.5
20260905114019 79 0 0.0 0.0 0.00 0.00 0.00 79 1013.6
20260905113519 79 0 0.0 0.0 0.00 0.00 0.00 79 1013.6
20260905113037 79 0 0.0 0.0 0.00 0.00 0.00 78 1013.7